This demonstration page uses our WeatherBlox Daily Observations layout. Learn more.

39.92423, -83.80882

Hourly Observations for September 4, 2017

Temp ( °F °C ) Dew Point ( °F °C ) Humidity (%) Winds ( mph kmh ) Pressure ( in mb ) Visibility ( mi km ) Precip ( " mm )
12:56 am 00:56 Clear 57 13.9 55 12.8 93 93 SSW 3 6 30 1016 10 16.09344 0 0
1:56 am 01:56 Clear 54 12.2 52 11.1 93 93 Calm 30 1016 10 16.09344 0 0
2:56 am 02:56 Clear 58 14.4 56 13.3 93 93 SSW 3 6 30 1016 10 16.09344 0 0
3:56 am 03:56 Clear 58 14.4 56 13.3 93 93 Calm 29.97 1015 10 16.09344 0 0
4:56 am 04:56 Clear 59 15 56 13.3 90 90 S 5 7 29.97 1015 10 16.09344 0 0
5:56 am 05:56 Mostly Clear 60 15.6 59 15 96 96 S 6 9 29.97 1015 8 12.874752 0 0
6:56 am 06:56 Clear with Mist and Fog 61 16.1 60 15.6 97 97 S 5 7 29.97 1015 4 6.437376 0 0
7:51 am 07:51 Partly Cloudy with Mist and Fog 63 17 63 17 100 100 SSW 5 7 29.97 1015 3 4.828032 0 0
7:56 am 07:56 Mostly Cloudy with Mist and Fog 63 17.2 62 16.7 97 97 SSW 5 7 29.97 1015 2.5 4.02336 0 0
8:39 am 08:39 Cloudy with Mist and Fog 64 18 64 18 100 100 SSW 8 13 29.94 1014 1.5 2.414016 0 0
8:46 am 08:46 Cloudy with Mist and Fog 64 18 64 18 100 100 SSW 9 15 29.94 1014 0.75 1.207008 0 0
8:56 am 08:56 Cloudy with Fog 65 18.3 64 17.8 97 97 SW 9 15 29.94 1014 0.5 0.804672 0 0
9:34 am 09:34 Cloudy with Mist and Fog 66 19 64 18 94 94 SSW 8 13 29.94 1014 1 1.609344 0 0
9:45 am 09:45 Cloudy with Mist and Fog 66 19 64 18 94 94 SSW 7 11 29.94 1014 1.5 2.414016 0 0
9:56 am 09:56 Cloudy with Mist and Fog 66 18.9 66 18.9 100 100 SSW 9 15 29.94 1014 2 3.218688 0 0
10:21 am 10:21 Cloudy with Mist and Fog 68 20 66 19 94 94 SSW 9 15 29.94 1014 3 4.828032 0 0
10:33 am 10:33 Cloudy with Mist and Fog 70 21 66 19 88 88 SSW 9 15 29.94 1014 5 8.04672 0 0
10:53 am 10:53 Mostly Cloudy 70 21 66 19 88 88 SSW 7 11 29.91 1013 7 11.265408 0 0
10:56 am 10:56 Mostly Cloudy 71 21.7 68 20 90 90 SW 9 15 29.91 1013 8 12.874752 0 0
11:09 am 11:09 Mostly Sunny 72 22 66 19 83 83 SSW 12 19 29.91 1013 10 16.09344 0 0
11:56 am 11:56 Sunny 76 24.4 68 20 77 77 WSW 10 17 29.91 1013 10 16.09344 0 0
12:56 pm 12:56 Sunny 80 26.7 69 20.6 69 69 SW 16 26 29.88 1012 10 16.09344 0 0
1:56 pm 13:56 Mostly Cloudy 82 27.8 69 20.6 65 65 WSW 20 31 29.85 1011 10 16.09344 0 0
2:56 pm 14:56 Mostly Cloudy 83 28.3 68 20 61 61 WSW 21 33 29.83 1010 10 16.09344 0 0
3:56 pm 15:56 Mostly Cloudy 83 28.3 70 21.1 65 65 WSW 16 26 29.8 1009 10 16.09344 0 0
4:56 pm 16:56 Mostly Cloudy 83 28.3 70 21.1 65 65 SW 14 22 29.8 1009 10 16.09344 0 0
5:56 pm 17:56 Mostly Cloudy 82 27.8 69 20.6 65 65 WSW 22 35 29.77 1008 10 16.09344 0 0
6:56 pm 18:56 Partly Cloudy 80 26.7 69 20.6 69 69 SW 14 22 29.74 1007 10 16.09344 0 0
7:56 pm 19:56 Partly Cloudy 78 25.6 68 20 71 71 SW 10 17 29.77 1008 10 16.09344 0 0
8:56 pm 20:56 Mostly Cloudy 78 25.6 67 19.4 69 69 SW 13 20 29.8 1009 10 16.09344 0 0
9:56 pm 21:56 Mostly Cloudy 77 25 67 19.4 71 71 SW 14 22 29.77 1008 10 16.09344 0 0
10:56 pm 22:56 Mostly Clear 76 24.4 67 19.4 74 74 SW 17 28 29.77 1008 10 16.09344 0 0
11:29 pm 23:29 Mostly Cloudy with Nearby Thunderstorms 72 22 63 17 73 73 WNW 21 33 29.8 1009 7 11.265408 0.001 0.001
11:56 pm 23:56 Cloudy with Heavy Thunderstorms 66 18.9 63 17.2 90 90 WSW 16 26 29.8 1009 5 8.04672 0.1 2.54

Powered by AerisWeather